Miscellaneous Local Product
Issued by NWS North Platte, NE

Home | Current Version | Previous Version | Text Only | Print | Product List | Glossary On
Versions: 1 2 3 4 5 6 7 8 9 10 11 12 13 14 15 16 17 18 19 20 21 22 23 24 25 26 27 28 29 30 31 32 33 34 35 36 37 38 39 40 41 42 43 44 45 46 47 48 49 50
752
AXUS43 KLBF 252310
MISLBF


WESTERN AND NORTH CENTRAL NEBRASKA HOURLY WEATHER ROUNDUP
NATIONAL WEATHER SERVICE NORTH PLATTE NE
600 PM CDT THU MAY 25 2017

NOTE: "FAIR" INDICATES FEW OR NO CLOUDS BELOW 12,000 FEET WITH NO
SIGNIFICANT WEATHER AND/OR OBSTRUCTIONS TO VISIBILITY.

NOTE: STATIONS NOT REPORTING VARIABLES SUCH AS SKY/WEATHER OR
PRESSURE ARE PROVIDED BY RAWS AND APRS NETWORKS AND ARE NOT UNDER
NATIONAL WEATHER SERVICE QUALITY CONTROL.

...OBSERVATIONS IN AND NEAR THE EASTERN PANHANDLE OF NEBRASKA...

CITY           SKY/WX    TMP DP  RH WIND       PRES   REMARKS
PINE RIDGE     PTSUNNY   71  48  43 NW9       29.59R
GORDON         MOCLDY    71  46  40 NW9       29.59R
CHADRON        MOSUNNY   69  42  37 NW12      29.60R
ALLIANCE       CLOUDY    63  54  72 E7        29.60F
SIDNEY         CLOUDY    67  50  54 N7        29.64R
CRESCENT LAKE    N/A     62  48  60 N6G30       N/A
$$

...OBSERVATIONS IN NORTHERN NEBRASKA AND FAR SOUTHERN SOUTH DAKOTA...

CITY           SKY/WX    TMP DP  RH WIND       PRES   REMARKS
WINNER         FAIR      73  45  36 NW6       29.55R
VALENTINE      CLOUDY    73  41  31 NE8       29.57R
THEDFORD       CLOUDY    72  50  46 NE6       29.58R
AINSWORTH      CLOUDY    69  51  52 NE5       29.58R
O`NEILL          N/A     72  51  46 S3        29.55R
ORD            CLOUDY    74  50  42 VRB5      29.54R
BROKEN BOW     MOSUNNY   71  53  52 S3        29.58R
VALENTINE NWR    N/A     69  46  43 NE5G13      N/A
HALSEY           N/A     73  48  41 NW6         N/A
BUTTE            N/A     71  53  53 CALM        N/A
CHAMBERS         N/A     76  53  44 CALM        N/A
EWING            N/A     74  54  49 SW7         N/A
$$

...OBSERVATIONS IN SOUTHWEST NEBRASKA AND FAR NORTHEAST COLORADO...

CITY           SKY/WX    TMP DP  RH WIND       PRES   REMARKS
WRAY           HVY RAIN  59  50  72 N12       29.64R
IMPERIAL       CLOUDY    63  56  78 SE6       29.62R
OGALLALA       CLOUDY    62  53  72 CALM      29.60R
NORTH PLATTE   TSTM      66  53  63 CALM      29.59R
MCCOOK         CLOUDY    74  54  49 N10       29.56R
LEXINGTON      CLOUDY    73  56  54 CALM      29.57R
STAPLETON        N/A     71  56  58 CALM        N/A
GOTHENBURG       N/A     74  49  41 NE3         N/A
CALLAWAY         N/A     73  56  54 SW5         N/A
$$

...OBSERVATIONS IN CENTRAL LINCOLN COUNTY AREA...

CITY           SKY/WX    TMP DP  RH WIND       PRES   REMARKS
N.P. AIRPORT   TSTM      66  53  63 CALM      29.59R
N.P. DOWNTOWN    N/A     62  55  78 NE3         N/A
N.P. SOUTHEAST   N/A     65  55  70 NE3         N/A
N.P. HILLCREST   N/A     62  52  71 NE12        N/A
$$

...SOME OBSERVATIONS FROM AROUND THE REGION...

CITY           SKY/WX    TMP DP  RH WIND       PRES   REMARKS
DENVER         CLOUDY    68  45  43 N17       29.65R
LIMON          CLOUDY    64  46  52 N13G22    29.64R
ASPEN          CLOUDY    59  33  37 SE15      29.81F
LARAMIE        CLOUDY    50  42  74 NW18      29.77R
CASPER         SUNNY     61  31  32 N23G31    29.71R
CHEYENNE       LGT RAIN  54  48  80 S9        29.75R
SCOTTSBLUFF    MOSUNNY   69  44  40 W12       29.61R
GRAND ISLAND   CLOUDY    74  53  48 S10       29.52R
OMAHA          CLOUDY    75  53  46 S10       29.54F
SIOUX FALLS    CLOUDY    71  53  52 S9        29.55S
PIERRE         MOSUNNY   75  33  21 NW14G22   29.51R
RAPID CITY     PTSUNNY   69  36  29 E5        29.59R
BISMARCK       MOSUNNY   73  42  32 W18G28    29.48R
KANSAS CITY    PTSUNNY   75  55  49 SE15      29.58F
HILL CITY      SUNNY     83  56  39 SE8       29.47R
WICHITA        MOSUNNY   83  59  44 S24G31    29.48F
DODGE CITY     SUNNY     83  58  42 S14       29.45F
OKLAHOMA CITY  PTSUNNY   86  60  41 S20G30    29.52F
DALLAS         CLOUDY    91  60  35 S23G33    29.59F HX  90
AMARILLO       CLOUDY    95  29   9 SW23G37   29.58F
$$




USA.gov is the U.S. government's official web portal to all federal, state and local government web resources and services.